O3B FM16 (43232 NORAD) Tracking and Keplerian Element Data

This shows tracking and keplerian element data for the satellite.

Feedback or suggestion? Click here.




ElementValue
Catalog43232
NameO3B FM16
Epoch Orbit2018
Epoch Day106.77263331
Epoch Year2019
RAAN21.083
Inclination0.0402
Eccentricity0.0003068
Argument of Perigee1.8799
Mean Anonmoly337.0496
Mean Motion5.00115951
Decay Rate-2.6E-07
L11 43232U 18024B 19106.77263331 -.00000026 00000-0 00000-0 0 9997
L22 43232 0.0402 21.0830 0003068 1.8799 337.0496 5.00115951 20187

Live tracking and technical data element details for O3B FM16 (NORAD 43232). O3B FM16 can be tracked NOW for your location showing map with azimuth and elevation plus other details from your city location.

Track the satellite on the map from your city or location and see movement details for azimuth, elevation, latitude, longitude, range, height, and movement on the map or in text.







IsCatalogInMostPopularTable: catalog: 43232, numindb: 155
Update: records affected: 1



GetName: 43232 O3B FM16

Hit Count: updated at: Fri, 19 Apr 2019 20:38:53 GMT